When you browse on this site, cookies collect data to enhance your experience and personalize the content and advertising you see.
Visit our Privacy Policy to learn more. By continuing to use the site, you agree to this use of cookies and data.
  • In Latvia
  • List of Countries
  • For 7 days
  • Water Temperature
  • Weather Map
  • Weather Widgets
  • user-avatar
    Login

    Hourly Weather Córdoba

    Today, 26 February, Wednesday

    Time Temperature Precipitation Wind Pressure Humidity
    00:00 +20°C° 0 mm 2 mps 724 mmHg 31%
    01:00 +19°C° 0 mm 2 mps 724 mmHg 31%
    02:00 +19°C° 0 mm 1 mps 725 mmHg 32%
    03:00 +19°C° 0 mm 1 mps 725 mmHg 32%
    04:00 +18°C° 0 mm 2 mps 725 mmHg 32%
    05:00 +17°C° 0 mm 2 mps 725 mmHg 32%
    06:00 +19°C° 0 mm 2 mps 725 mmHg 30%
    07:00 +20°C° 0 mm 3 mps 726 mmHg 29%
    08:00 +21°C° 0 mm 3 mps 726 mmHg 27%
    09:00 +24°C° 0 mm 3 mps 726 mmHg 25%
    10:00 +26°C° 0 mm 3 mps 726 mmHg 23%
    11:00 +28°C° 0 mm 3 mps 726 mmHg 21%
    12:00 +30°C° 0 mm 2 mps 726 mmHg 20%
    13:00 +31°C° 0 mm 2 mps 725 mmHg 19%
    14:00 +34°C° 0 mm 2 mps 724 mmHg 18%
    15:00 +34°C° 0 mm 2 mps 724 mmHg 18%
    16:00 +34°C° 0 mm 2 mps 723 mmHg 18%
    17:00 +34°C° 0 mm 2 mps 723 mmHg 17%
    18:00 +30°C° 0 mm 2 mps 723 mmHg 19%
    19:00 +27°C° 0 mm 2 mps 723 mmHg 22%
    20:00 +24°C° 0 mm 2 mps 723 mmHg 24%
    21:00 +23°C° 0 mm 2 mps 724 mmHg 25%
    22:00 +21°C° 0 mm 2 mps 724 mmHg 26%
    23:00 +21°C° 0 mm 1 mps 725 mmHg 28%

    Tomorrow, 27 February, Thursday

    Time Temperature Precipitation Wind Pressure Humidity
    00:00 +20°C° 0 mm 1 mps 724 mmHg 28%
    01:00 +20°C° 0 mm 1 mps 724 mmHg 29%
    02:00 +20°C° 0 mm 1 mps 724 mmHg 30%
    03:00 +19°C° 0 mm 1 mps 724 mmHg 30%
    04:00 +19°C° 0 mm 1 mps 724 mmHg 31%
    05:00 +19°C° 0 mm 1 mps 724 mmHg 32%
    06:00 +21°C° 0 mm 1 mps 724 mmHg 29%
    07:00 +23°C° 0 mm 1 mps 725 mmHg 26%
    08:00 +25°C° 0 mm 1 mps 725 mmHg 24%
    09:00 +27°C° 0 mm 2 mps 725 mmHg 22%
    10:00 +30°C° 0 mm 3 mps 725 mmHg 20%
    11:00 +33°C° 0 mm 4 mps 725 mmHg 18%
    12:00 +34°C° 0 mm 4 mps 725 mmHg 17%
    13:00 +35°C° 0 mm 4 mps 724 mmHg 17%
    14:00 +36°C° 0 mm 4 mps 723 mmHg 16%
    15:00 +36°C° 0 mm 4 mps 723 mmHg 16%
    16:00 +36°C° 0 mm 4 mps 722 mmHg 16%
    17:00 +36°C° 0 mm 4 mps 722 mmHg 17%
    18:00 +33°C° 0 mm 4 mps 722 mmHg 21%
    19:00 +29°C° 0 mm 4 mps 722 mmHg 25%
    20:00 +27°C° 0 mm 4 mps 722 mmHg 29%
    21:00 +26°C° 0 mm 3 mps 722 mmHg 31%
    22:00 +25°C° 0 mm 3 mps 723 mmHg 32%
    23:00 +24°C° 0 mm 3 mps 723 mmHg 34%

    Day after tomorrow, 28 February, Friday

    Time Temperature Precipitation Wind Pressure Humidity
    00:00 +24°C° 0 mm 2 mps 723 mmHg 34%
    01:00 +23°C° 0 mm 2 mps 723 mmHg 35%
    02:00 +23°C° 0 mm 2 mps 723 mmHg 36%
    03:00 +23°C° 0 mm 2 mps 723 mmHg 36%
    04:00 +21°C° 0 mm 2 mps 723 mmHg 36%
    05:00 +21°C° 0 mm 2 mps 723 mmHg 37%
    06:00 +24°C° 0 mm 2 mps 724 mmHg 34%
    07:00 +26°C° 0 mm 2 mps 724 mmHg 30%
    08:00 +29°C° 0 mm 2 mps 725 mmHg 27%
    09:00 +31°C° 0 mm 2 mps 725 mmHg 23%
    10:00 +35°C° 0 mm 3 mps 725 mmHg 20%
    11:00 +38°C° 0 mm 3 mps 725 mmHg 16%
    12:00 +38°C° 0 mm 3 mps 725 mmHg 15%
    13:00 +39°C° 0 mm 3 mps 725 mmHg 13%
    14:00 +41°C° 0 mm 4 mps 724 mmHg 12%
    15:00 +40°C° 0 mm 4 mps 724 mmHg 12%
    16:00 +40°C° 0 mm 4 mps 723 mmHg 12%
    17:00 +40°C° 0 mm 5 mps 722 mmHg 13%
    18:00 +36°C° 0 mm 4 mps 723 mmHg 16%
    19:00 +33°C° 0 mm 4 mps 723 mmHg 18%
    20:00 +29°C° 0 mm 4 mps 723 mmHg 21%
    21:00 +28°C° 0 mm 4 mps 724 mmHg 22%
    22:00 +27°C° 0 mm 3 mps 724 mmHg 23%
    23:00 +26°C° 0 mm 3 mps 725 mmHg 24%

    29 February, Saturday

    Time Temperature Precipitation Wind Pressure Humidity
    00:00 +26°C° 0 mm 2 mps 725 mmHg 25%
    01:00 +25°C° 0 mm 2 mps 725 mmHg 26%
    02:00 +24°C° 0 mm 1 mps 725 mmHg 26%
    03:00 +24°C° 0 mm 1 mps 725 mmHg 27%
    04:00 +23°C° 0 mm 1 mps 725 mmHg 28%
    05:00 +23°C° 0 mm 1 mps 726 mmHg 29%
    06:00 +25°C° 0 mm 1 mps 726 mmHg 27%
    07:00 +27°C° 0 mm 1 mps 727 mmHg 25%
    08:00 +29°C° 0 mm 1 mps 727 mmHg 22%
    09:00 +32°C° 0 mm 2 mps 727 mmHg 19%
    10:00 +36°C° 0 mm 3 mps 727 mmHg 16%
    11:00 +38°C° 0 mm 3 mps 728 mmHg 13%
    12:00 +40°C° 0 mm 4 mps 727 mmHg 12%
    13:00 +41°C° 0 mm 5 mps 727 mmHg 12%
    14:00 +41°C° 0 mm 5 mps 726 mmHg 11%
    15:00 +41°C° 0 mm 5 mps 726 mmHg 12%
    16:00 +40°C° 0 mm 6 mps 725 mmHg 13%
    17:00 +39°C° 0 mm 6 mps 725 mmHg 13%
    18:00 +36°C° 0 mm 5 mps 725 mmHg 16%
    19:00 +33°C° 0 mm 4 mps 725 mmHg 19%
    20:00 +29°C° 0 mm 3 mps 725 mmHg 23%
    21:00 +28°C° 0 mm 3 mps 725 mmHg 25%
    22:00 +27°C° 0 mm 3 mps 726 mmHg 27%
    23:00 +26°C° 0 mm 3 mps 726 mmHg 29%

    1 March, Sunday

    Time Temperature Precipitation Wind Pressure Humidity
    00:00 +25°C° 0 mm 3 mps 726 mmHg 29%
    01:00 +25°C° 0 mm 3 mps 726 mmHg 29%
    02:00 +25°C° 0 mm 4 mps 726 mmHg 30%
    03:00 +25°C° 0 mm 4 mps 726 mmHg 31%
    04:00 +24°C° 0 mm 3 mps 726 mmHg 32%
    05:00 +24°C° 0 mm 3 mps 726 mmHg 33%
    06:00 +25°C° 0 mm 4 mps 727 mmHg 30%
    07:00 +27°C° 0 mm 5 mps 727 mmHg 28%
    08:00 +29°C° 0 mm 6 mps 728 mmHg 25%
    09:00 +32°C° 0 mm 6 mps 727 mmHg 22%
    10:00 +34°C° 0 mm 7 mps 727 mmHg 19%
    11:00 +36°C° 0 mm 7 mps 727 mmHg 16%
    12:00 +38°C° 0 mm 7 mps 727 mmHg 15%
    13:00 +38°C° 0 mm 7 mps 726 mmHg 14%
    14:00 +39°C° 0 mm 7 mps 726 mmHg 14%
    15:00 +39°C° 0 mm 7 mps 725 mmHg 14%
    16:00 +38°C° 0 mm 7 mps 725 mmHg 15%
    17:00 +38°C° 0 mm 7 mps 724 mmHg 15%
    18:00 +34°C° 0 mm 5 mps 724 mmHg 19%
    19:00 +32°C° 0 mm 4 mps 724 mmHg 22%
    20:00 +28°C° 0 mm 3 mps 724 mmHg 26%
    21:00 +27°C° 0 mm 3 mps 724 mmHg 28%
    22:00 +26°C° 0 mm 2 mps 725 mmHg 29%
    23:00 +25°C° 0 mm 2 mps 725 mmHg 31%

    2 March, Monday

    Time Temperature Precipitation Wind Pressure Humidity
    00:00 +24°C° 0 mm 2 mps 725 mmHg 31%
    01:00 +24°C° 0 mm 2 mps 725 mmHg 32%
    02:00 +23°C° 0 mm 2 mps 724 mmHg 33%
    03:00 +23°C° 0 mm 2 mps 724 mmHg 35%
    04:00 +21°C° 0 mm 2 mps 724 mmHg 36%
    05:00 +21°C° 0 mm 2 mps 724 mmHg 38%
    06:00 +23°C° 0 mm 2 mps 725 mmHg 35%
    07:00 +25°C° 0 mm 3 mps 725 mmHg 32%
    08:00 +27°C° 0 mm 3 mps 726 mmHg 29%
    09:00 +29°C° 0 mm 5 mps 726 mmHg 26%
    10:00 +33°C° 0 mm 6 mps 726 mmHg 22%
    11:00 +35°C° 0 mm 7 mps 725 mmHg 19%
    12:00 +36°C° 0 mm 6 mps 725 mmHg 17%
    13:00 +38°C° 0 mm 6 mps 724 mmHg 16%
    14:00 +39°C° 0 mm 6 mps 724 mmHg 14%
    15:00 +39°C° 0 mm 6 mps 723 mmHg 14%
    16:00 +39°C° 0 mm 5 mps 722 mmHg 13%
    17:00 +37°C° 0 mm 5 mps 722 mmHg 12%
    18:00 +34°C° 0 mm 4 mps 722 mmHg 16%
    19:00 +30°C° 0 mm 3 mps 721 mmHg 19%
    20:00 +27°C° 0 mm 3 mps 721 mmHg 23%
    21:00 +27°C° 0 mm 2 mps 722 mmHg 24%
    22:00 +26°C° 0 mm 2 mps 722 mmHg 25%
    23:00 +25°C° 0 mm 2 mps 722 mmHg 27%
    Show more